Home > Time Zones > World Clock > Weather > Iran > Gorgan > Past weeks

Flag for Iran Weather past 2 weeks in Gorgan, Iran

Now
95 °F

Passing clouds.


Feels Like: 94 °F
Forecast: 57 / 97 °F
Wind: 9 mph from Northwest

Location: Gorgan Airport

Current Time: May 26, 2015 at 12:59:10 PM

Latest Report: May 26, 2015 at 12:30 PM


Visibility: N/A

Pressure: 29.83 "Hg

Humidity: 28%

Dew point: 57 °F

Location of GorganLocation

Historic Weather in Gorgan — Graph

°F

Gorgan temperature yesterday

Maximum temperature yesterday: 90 °F (at 4:30 PM)
Minimum temperature yesterday: 68 °F (at 4:30 AM)
Average temperature yesterday: 75 °F

Past Weeks' High & Low Weather Summary

 TemperatureHumidityPressure
High97 °F (May 17, 4:30 PM)100% (May 13, 10:30 AM)30.15 "Hg (May 13, 10:30 AM)
Low50 °F (May 17, 5:30 AM)19% (May 17, 4:30 PM)29.80 "Hg (May 13, 8:30 PM)
Average72 °F69%30.01 "Hg
* Reported May 11 11:30 AM — May 26 11:30 AM, Gorgan, Weather by CustomWeather, © 2015

Note: Actual official high and low records may vary slightly from our data, if they occured in-between our weather recording intervals... More about our weather records

Advertising

Gorgan weather history for previous 24 hours

 ConditionsComfort  
Time TempWeatherWind HumidityBarometerVisibility
11:30 AM
Tue, May 26
91 °FPassing clouds.7 mph36%29.83 "HgN/A
11:00 AM90 °FPassing clouds.7 mph33%29.83 "HgN/A
10:30 AM86 °FPassing clouds.7 mph38%29.83 "HgN/A
9:30 AM82 °FSunny.9 mph42%29.86 "Hg10 mi
8:30 AM79 °FPassing clouds.7 mph48%29.89 "HgN/A
7:30 AM72 °FPassing clouds.No wind65%29.89 "HgN/A
6:30 AM63 °FClear.No wind83%29.89 "Hg10 mi
5:30 AM63 °FClear.7 mph83%29.89 "Hg10 mi
4:30 AM64 °FClear.9 mph78%29.89 "Hg10 mi
3:30 AM63 °FPassing clouds.9 mph83%29.89 "HgN/A
2:30 AM64 °FPassing clouds.No wind78%29.86 "HgN/A
1:30 AM66 °FPassing clouds.No wind73%29.86 "HgN/A
12:30 AM68 °FPassing clouds.No wind73%29.86 "HgN/A
11:30 PM
Mon, May 25
68 °FPassing clouds.5 mph69%29.89 "HgN/A
10:30 PM70 °FPassing clouds.5 mph69%29.89 "HgN/A
10:00 PM72 °FPassing clouds.5 mph61%29.89 "HgN/A
9:30 PM73 °FPassing clouds.9 mph57%29.89 "HgN/A
9:00 PM73 °FScattered clouds.5 mph57%29.89 "HgN/A
8:30 PM73 °FScattered clouds.7 mph57%29.86 "HgN/A
7:30 PM79 °FScattered clouds.7 mph48%29.86 "HgN/A
6:30 PM82 °FPartly sunny.14 mph40%29.86 "HgN/A
5:30 PM86 °FScattered clouds.9 mph35%29.86 "HgN/A
4:30 PM90 °FScattered clouds.7 mph36%29.86 "HgN/A
3:30 PM88 °FScattered clouds.7 mph40%29.89 "HgN/A
2:30 PM86 °FScattered clouds.7 mph43%29.89 "HgN/A
1:30 PM86 °FScattered clouds.14 mph43%29.92 "HgN/A
12:30 PM77 °FThunderstorms. Broken clouds.7 mph54%29.92 "HgN/A
Weather by CustomWeather, © 2015

See weather overviewHow to use our weather pages